DW5963 Weather Reports


Display with metric or nautical units.
time (UTC)temp
F
wind
direction
speed
MPH
gust
MPH
rain 1hr
in
rain 24hr
in
rain mn
in
humidity
%
barometer
mb
20260504201041 45 360 16.0 0.0 0.00 0.00 0.00 51 1010.6
20260504200541 45 360 16.0 0.0 0.00 0.00 0.00 50 1010.6
20260504200040 45 360 16.0 0.0 0.00 0.00 0.00 50 1010.6
20260504195041 45 360 15.0 0.0 0.00 0.00 0.00 49 1010.5
20260504194539 46 360 16.0 0.0 0.00 0.00 0.00 49 1010.6
20260504194039 45 360 16.0 0.0 0.00 0.00 0.00 49 1010.6
20260504193538 45 360 15.0 0.0 0.00 0.00 0.00 48 1010.5
20260504193038 45 360 15.0 0.0 0.00 0.00 0.00 47 1010.5
20260504192537 46 360 16.0 0.0 0.00 0.00 0.00 46 1010.4
20260504192037 46 360 18.0 0.0 0.00 0.00 0.00 45 1010.4
20260504191537 47 360 17.0 0.0 0.00 0.00 0.00 43 1010.3
20260504191037 47 360 16.0 0.0 0.00 0.00 0.00 45 1010.2
20260504190537 46 360 16.0 0.0 0.00 0.00 0.00 46 1010.3
20260504190036 46 360 15.0 0.0 0.00 0.00 0.00 44 1010.3
20260504185040 46 360 14.0 0.0 0.00 0.00 0.00 46 1010.3
20260504184537 46 360 14.0 0.0 0.00 0.00 0.00 47 1010.3
20260504184037 45 360 14.0 0.0 0.00 0.00 0.00 47 1010.3
20260504183537 45 360 14.0 0.0 0.00 0.00 0.00 48 1010.3
20260504183036 45 360 14.0 0.0 0.00 0.00 0.00 48 1010.4
20260504182536 45 360 14.0 0.0 0.00 0.00 0.00 48 1010.3
20260504182037 45 360 14.0 0.0 0.00 0.00 0.00 49 1010.4
20260504181536 44 360 15.0 0.0 0.00 0.00 0.00 49 1010.4
20260504181036 44 360 16.0 0.0 0.00 0.00 0.00 48 1010.3
20260504180536 45 360 17.0 0.0 0.00 0.00 0.00 48 1010.3
20260504180036 44 360 16.0 0.0 0.00 0.00 0.00 49 1010.4
20260504175035 44 360 17.0 0.0 0.00 0.00 0.00 48 1010.2
20260504174537 44 360 17.0 0.0 0.00 0.00 0.00 47 1010.3
20260504174034 45 360 18.0 0.0 0.00 0.00 0.00 46 1010.1
20260504173533 46 360 18.0 0.0 0.00 0.00 0.00 45 1010.1
20260504173039 46 360 18.0 0.0 0.00 0.00 0.00 48 1010.0
20260504172534 45 360 19.0 0.0 0.00 0.00 0.00 48 1010.1
20260504172032 45 360 20.0 0.0 0.00 0.00 0.00 48 1010.1
20260504171532 45 360 20.0 0.0 0.00 0.00 0.00 48 1009.9
20260504171033 45 360 20.0 0.0 0.00 0.00 0.00 51 1009.9
20260504170532 45 360 18.0 0.0 0.00 0.00 0.00 52 1009.9
20260504151023 44 360 16.0 0.0 0.00 0.00 0.00 63 1008.9
20260504150523 44 360 16.0 0.0 0.00 0.00 0.00 63 1008.9
20260504141020 45 360 12.0 0.0 0.00 0.00 0.00 58 1008.7
20260504140521 45 360 11.0 0.0 0.00 0.00 0.00 59 1008.7
20260504130519 41 360 12.0 0.0 0.00 0.00 0.00 65 1008.6
20260504110558 43 360 13.0 0.0 0.00 0.00 0.00 57 1007.1
20260504100550 45 360 13.0 0.0 0.00 0.00 0.00 53 1006.6
20260504081534 49 360 13.0 0.0 0.00 0.00 0.00 46 1005.9
20260504081030 49 360 12.0 0.0 0.00 0.00 0.00 46 1005.7
20260504080529 49 360 11.0 0.0 0.00 0.00 0.00 47 1005.6
20260504050511 56 360 13.0 0.0 0.00 0.00 0.00 40 1003.3
20260504050012 56 360 12.0 0.0 0.00 0.00 0.00 40 1003.3
20260504045010 56 360 12.0 0.0 0.00 0.00 0.00 41 1003.0
20260504044514 56 360 12.0 0.0 0.00 0.00 0.00 43 1003.0
20260504044010 56 360 12.0 0.0 0.00 0.00 0.00 44 1003.1
20260504043510 56 360 12.0 0.0 0.00 0.00 0.00 44 1003.2
20260504043013 56 360 13.0 0.0 0.00 0.00 0.00 44 1003.3
20260504042509 57 360 15.0 0.0 0.00 0.00 0.00 43 1003.3
20260504042009 57 360 13.0 0.0 0.00 0.00 0.00 42 1003.2
20260504041532 57 360 12.0 0.0 0.00 0.00 0.00 43 1003.1
20260504041009 58 360 12.0 0.0 0.00 0.00 0.00 43 1003.1
20260504040510 58 360 13.0 0.0 0.00 0.00 0.00 42 1002.9
20260504040015 58 360 13.0 0.0 0.00 0.00 0.00 41 1002.7
20260504035010 58 360 11.0 0.0 0.00 0.00 0.00 40 1002.5
20260504034511 59 360 11.0 0.0 0.00 0.00 0.00 40 1002.3
20260504034009 59 360 13.0 0.0 0.00 0.00 0.00 39 1002.1
20260504033509 60 360 15.0 0.0 0.00 0.00 0.00 38 1001.9
20260504033009 60 360 16.0 0.0 0.00 0.00 0.00 38 1001.8
20260504032511 61 360 17.0 0.0 0.00 0.00 0.00 38 1001.7
20260504032009 61 360 18.0 0.0 0.00 0.00 0.00 37 1001.5
20260504031509 61 360 21.0 0.0 0.00 0.00 0.00 37 1001.4
20260504031008 62 360 23.0 0.0 0.00 0.00 0.00 36 1001.2
20260504030508 62 360 21.0 0.0 0.00 0.00 0.00 36 1000.9
20260504030008 64 360 17.0 0.0 0.00 0.00 0.00 34 1000.8
20260504025007 69 360 13.0 0.0 0.00 0.00 0.00 32 999.8
20260504024506 68 360 13.0 0.0 0.00 0.00 0.00 33 999.8
20260504024006 69 360 14.0 0.0 0.00 0.00 0.00 32 999.8
20260504023507 68 360 14.0 0.0 0.00 0.00 0.00 33 999.7
20260504023007 69 360 15.0 0.0 0.00 0.00 0.00 32 999.7
20260504022507 69 360 15.0 0.0 0.00 0.00 0.00 32 999.7
20260504022006 69 360 15.0 0.0 0.00 0.00 0.00 32 999.7
20260504021506 69 360 16.0 0.0 0.00 0.00 0.00 32 999.6
20260504021006 70 360 17.0 0.0 0.00 0.00 0.00 31 999.6
20260504020505 70 360 17.0 0.0 0.00 0.00 0.00 31 999.5
20260504020009 70 360 16.0 0.0 0.00 0.00 0.00 31 999.5
20260504015007 71 360 17.0 0.0 0.00 0.00 0.00 31 999.5
20260504014505 71 360 17.0 0.0 0.00 0.00 0.00 30 999.5
20260504014009 72 360 18.0 0.0 0.00 0.00 0.00 29 999.5
20260504013508 72 360 18.0 0.0 0.00 0.00 0.00 28 999.5
20260504013005 72 360 18.0 0.0 0.00 0.00 0.00 26 999.5
20260504012508 73 360 18.0 0.0 0.00 0.00 0.00 25 999.4
20260504012005 73 360 17.0 0.0 0.00 0.00 0.00 23 999.5
20260504011505 73 360 17.0 0.0 0.00 0.00 0.00 22 999.5
20260504011004 74 360 17.0 0.0 0.00 0.00 0.00 21 999.5
20260504010506 74 360 14.0 0.0 0.00 0.00 0.00 23 999.6
20260504010004 74 360 14.0 0.0 0.00 0.00 0.00 23 999.5
20260504005003 74 360 16.0 0.0 0.00 0.00 0.00 23 999.6
20260504004505 74 360 18.0 0.0 0.00 0.00 0.00 23 999.7
20260504004001 75 360 19.0 0.0 0.00 0.00 0.00 22 999.7
20260504003501 75 360 20.0 0.0 0.00 0.00 0.00 21 999.7
20260504003001 75 360 20.0 0.0 0.00 0.00 0.00 21 999.8
20260504002600 76 360 20.0 0.0 0.00 0.00 0.00 21 999.9
20260504002059 76 360 20.0 0.0 0.00 0.00 0.00 20 1000.0
20260504001600 76 360 20.0 0.0 0.00 0.00 0.00 20 1000.1
20260504001059 76 360 21.0 0.0 0.00 0.00 0.00 20 1000.0
20260504000558 76 360 22.0 0.0 0.00 0.00 0.00 21 1000.1
20260504000107 76 360 21.0 0.0 0.00 0.00 0.00 21 1000.1
20260503235559 77 360 20.0 0.0 0.00 0.00 0.00 21 1000.0
20260503235058 76 360 18.0 0.0 0.00 0.00 0.00 23 1000.2
20260503234556 76 360 15.0 0.0 0.00 0.00 0.00 24 1000.3
20260503234055 76 360 15.0 0.0 0.00 0.00 0.00 25 1000.5
20260503233556 75 360 16.0 0.0 0.00 0.00 0.00 25 1000.6
20260503233054 76 360 19.0 0.0 0.00 0.00 0.00 24 1000.8
20260503232054 76 360 15.0 0.0 0.00 0.00 0.00 24 1000.9
20260503231554 76 360 15.0 0.0 0.00 0.00 0.00 24 1001.2
20260503231056 76 360 15.0 0.0 0.00 0.00 0.00 24 1001.2
20260503230555 76 360 16.0 0.0 0.00 0.00 0.00 24 1001.4
20260503230052 76 360 16.0 0.0 0.00 0.00 0.00 22 1001.5
20260503225551 76 360 17.0 0.0 0.00 0.00 0.00 22 1001.6
20260503225049 76 360 19.0 0.0 0.00 0.00 0.00 22 1001.8
20260503224557 76 360 18.0 0.0 0.00 0.00 0.00 22 1001.9
20260503224048 76 360 17.0 0.0 0.00 0.00 0.00 21 1002.0
20260503223547 76 360 17.0 0.0 0.00 0.00 0.00 22 1002.1
20260503223047 76 360 16.0 0.0 0.00 0.00 0.00 22 1002.2
20260503222047 76 360 18.0 0.0 0.00 0.00 0.00 21 1002.5
20260503221557 76 360 20.0 0.0 0.00 0.00 0.00 20 1002.5
20260503221049 76 360 19.0 0.0 0.00 0.00 0.00 20 1002.5
20260503220544 76 360 18.0 0.0 0.00 0.00 0.00 24 1002.8
20260503220043 76 360 17.0 0.0 0.00 0.00 0.00 24 1002.7
20260503215541 75 360 17.0 0.0 0.00 0.00 0.00 25 1002.7
20260503215041 75 360 19.0 0.0 0.00 0.00 0.00 24 1003.0
20260503214542 75 360 18.0 0.0 0.00 0.00 0.00 25 1003.1
20260503214039 75 360 17.0 0.0 0.00 0.00 0.00 25 1003.4
20260503213539 75 360 17.0 0.0 0.00 0.00 0.00 25 1003.3
20260503213044 76 360 18.0 0.0 0.00 0.00 0.00 25 1003.6
20260503212039 76 360 18.0 0.0 0.00 0.00 0.00 24 1003.8
20260503211537 75 360 19.0 0.0 0.00 0.00 0.00 25 1004.0
20260503211036 76 360 19.0 0.0 0.00 0.00 0.00 24 1004.0
20260503210536 75 360 17.0 0.0 0.00 0.00 0.00 23 1004.0
20260503210036 74 360 17.0 0.0 0.00 0.00 0.00 22 1004.2
20260503205536 75 360 16.0 0.0 0.00 0.00 0.00 24 1004.3
20260503205035 74 360 16.0 0.0 0.00 0.00 0.00 25 1004.5
20260503204533 74 360 17.0 0.0 0.00 0.00 0.00 25 1004.7
20260503204035 74 360 17.0 0.0 0.00 0.00 0.00 25 1004.5
20260503203534 74 360 17.0 0.0 0.00 0.00 0.00 25 1004.7
20260503203037 74 360 16.0 0.0 0.00 0.00 0.00 25 1004.7
20260503202033 75 360 18.0 0.0 0.00 0.00 0.00 24 1004.9
20260503201532 75 360 17.0 0.0 0.00 0.00 0.00 25 1005.0